2018-046E

Last updated on Mon Aug 13 2018 00:15:07 GMT+0000 (Coordinated Universal Time)

1 43558U 18046E 18224.61748958 .00001992 00000-0 85117-4 0 9996 2 43558 51.6331 102.8557 0008147 52.0121 308.1751 15.27800710 4140
UTC large
Height (km)
Speed (km/s)
/
Latitude / Longitude
Inclination (degrees)
Orbital Period (minutes)
Azimuth
Elevation
Range (km)
Doppler Factor

Next 0 passes for location: London (51.5072 / 0.1276)

Sorry there are no passes over London.